sat.trackr.live / text

‹ back to catalog

STARLINK-1493

NORAD 45759 · 2020-038AF

PAYLOAD ACTIVE UNKNOWN

§ Identity

Operator
Country
US
Launch date
2020-06-13
Launch site
AFETR
Launch vehicle
Mass (kg)
RCS (m²)

Purposes: comms

External: N2YO · Heavens-Above · Gunter

§ Orbital elements

Epoch: 2026-09-20T04:51:50.556672Z

Period
91.31 min
Inclination
53.0390°
Eccentricity
0.0006569
Mean motion
15.77084051 rev/d
Perigee alt
334.3 km
Apogee alt
343.1 km
Semi-major
6,716.8 km
B*
4.1719e-4
RAAN
330.2743°
Arg perigee
6.7127°
Mean anomaly
353.3979°
Rev number
34,709

§ Raw data

STARLINK-14931 45759U 20038AF  26263.20266848  .00069360  00000+0  41719-3 0  99962 45759  53.0390 330.2743 0006569   6.7127 353.3979 15.77084051347093

JSON: /api/v1/satellites/45759 · /tle

For live sub-satellite position, see the globe view (requires WebGL).

§ Visibility from observer

Set your observer location to see the next 7 days of passes ≥ 10°. The values pass through the URL so the page stays shareable.

No JS? Fill the form by hand. The geolocation button needs JavaScript.